Tracking 19177 objects as of 24-May-2018
HD Live streaming from Space Station
objects crossing your sky now

OPS 8737

Track OPS 8737 now!
10-day predictions
OPS 8737 is classified as:


NORAD ID: 14690
Int'l Code: 1984-012A
Perigee: 448.4 km
Apogee: 1,690.0 km
Inclination: 63.3 °
Period: 106.4 minutes
Semi major axis: 7440 km
RCS: Unknown
Launch date: February 5, 1984
Source: United States (US)
Launch site: AIR FORCE WESTERN TEST RANGE (AFWTR)
aabbcc
Your satellite tracking list
Your tracking list is empty




NASA's NSSDC Master Catalog

Two Line Element Set (TLE):
1 14690U 84012A   18121.83040781 0.00001800  00000-0  25075-3 0    03
2 14690  63.2919  25.6247 0834399  59.1223 300.8777 13.52766354    00
Source of the keplerian elements: McCants